Temperature
7 5 5 6 6 7 7 7 7 7 8 7 7 7 7 7 7 6 6 7 7 7 8 8 8 8 8 8 8 8 8 8 8 8 8 8 8 8 8 7 7 7 7 7
5 5 6 7 7 7 7 6 6 6 7 7 6 6 6 6 6 6 6 7 7 7 7 7 7 7 7 7 7 7 7 7 7 7 7 7 7 7 7 7 7 7 7 7
5 6 7 7 6 6 6 6 6 6 6 6 6 6 6 6 6 6 6 7 7 6 6 7 7 7 7 7 7 7 6 6 6 6 6 6 6 6 6 6 7 6 6 6
5 6 6 6 6 6 6 6 6 6 5 4 5 4 5 5 5 5 5 5 6 6 6 6 6 6 6 6 6 6 6 6 6 6 6 6 6 6 6 6 6 6 6 6
5 5 5 6 6 6 5 6 5 5 4 3 4 4 4 4 5 5 4 5 5 5 5 5 5 5 6 6 5 5 5 5 5 5 5 5 5 5 5 5 5 6 6 6
5 5 5 5 5 5 5 4 4 3 3 3 4 4 4 4 4 4 4 5 5 5 5 5 5 5 5 5 5 5 5 5 5 5 5 4 4 4 5 5 5 5 5 5
4 5 5 5 5 4 4 3 3 3 2 3 4 4 4 4 4 4 4 4 4 4 4 4 4 4 4 4 4 4 4 4 4 4 4 4 4 4 4 4 4 4 4 5
4 4 4 4 4 4 3 3 3 3 3 3 3 3 4 4 4 4 4 4 4 4 4 4 4 4 4 3 4 4 4 4 3 3 3 3 3 3 3 3 3 4 4 4
3 3 4 4 4 4 4 2 3 2 1 2 3 3 4 4 3 3 3 3 3 3 3 3 3 3 3 3 3 3 3 3 3 3 3 3 3 3 3 3 3 3 3 3
2 2 3 3 4 3 3 2 1 2 2 3 3 3 3 3 3 2 2 2 3 3 3 3 3 3 2 2 2 2 2 2 2 2 2 2 2 2 2 2 2 3 3 3
2 2 2 2 2 2 2 2 1 1 1 2 2 3 3 3 2 2 2 2 3 2 2 2 2 2 2 2 2 2 1 1 1 1 1 2 2 2 2 2 2 2 2 2
1 0 0 1 1 1 1 1 1 1 1 0 1 2 3 2 2 2 2 2 2 2 2 2 2 1 1 1 1 1 1 1 1 1 1 1 1 1 1 2 2 2 2 2
1 -0 1 1 1 0 0 0 -0 -1 -0 -1 0 2 2 2 2 2 2 2 2 1 1 1 1 1 1 0 0 0 0 0 0 0 0 0 1 1 1 1 1 1 1 1
1 -1 0 2 1 -0 -1 -1 -1 -1 -1 -1 -0 1 2 2 1 1 1 1 1 1 1 1 0 0 0 0 -0 -0 -0 -0 -0 -0 -0 -0 -0 0 0 0 1 1 1 1
-0 -0 -1 -1 0 -0 -1 -1 -2 -2 -1 -0 0 0 2 1 0 1 1 1 1 1 0 0 -0 -0 -0 -0 -0 -0 -1 -1 -1 -1 -1 -1 -1 -0 -0 0 0 0 0 0
-2 -1 -1 -1 -0 -1 -1 -1 -1 -1 -1 -1 -1 -0 1 1 1 1 1 1 0 0 0 -0 -0 -1 -1 -1 -1 -1 -1 -1 -1 -1 -1 -1 -1 -1 -1 -0 -0 -0 -0 -0
-2 -2 -1 -1 -1 -1 -0 -0 -1 -1 -2 -2 -0 0 0 -0 -0 0 0 0 0 0 -0 -0 -1 -1 -1 -1 -1 -1 -1 -1 -1 -1 -1 -1 -1 -1 -1 -1 -1 -1 -1 -1
-3 -2 -3 -2 -1 -0 1 -0 -1 -1 -1 -2 -1 -1 -1 -0 0 1 1 0 0 -0 -1 -1 -1 -1 -1 -1 -1 -1 -1 -1 -1 -1 -1 -1 -1 -1 -1 -1 -1 -1 -1 -1
-3 -2 -3 -3 -2 -1 0 -0 -1 -1 -1 -1 -2 -1 -1 -0 -1 -0 1 0 0 -0 -1 -1 -1 -1 -2 -2 -2 -1 -1 -2 -2 -2 -2 -2 -2 -2 -2 -2 -2 -2 -2 -2
-4 -3 -3 -3 -2 -1 1 0 -0 -0 -0 -0 -1 -1 -2 -2 -2 -1 1 0 -0 -1 -1 -1 -2 -2 -2 -2 -2 -2 -2 -2 -2 -2 -2 -2 -2 -2 -2 -2 -2 -2 -2 -2
-3 -4 -4 -4 -3 -2 -1 -1 -0 0 1 0 -0 -0 -1 -2 -1 0 -0 -1 -1 -1 -1 -2 -2 -2 -2 -2 -2 -2 -2 -2 -2 -2 -3 -2 -2 -3 -3 -3 -3 -3 -3 -2
-4 -4 -4 -4 -3 -1 -1 -2 -1 -0 0 0 0 0 -0 -0 -0 -0 -1 -1 -1 -1 -2 -2 -2 -2 -2 -2 -3 -3 -2 -2 -3 -3 -3 -3 -3 -3 -3 -3 -3 -3 -3 -3
-4 -3 -4 -3 -1 -1 -1 -0 1 0 0 0 -0 -0 -1 -1 -1 -1 -1 -2 -2 -2 -2 -2 -3 -3 -3 -3 -3 -3 -3 -3 -3 -3 -3 -3 -3 -3 -3 -3 -3 -3 -3 -3
-4 -4 -4 -4 -3 -2 -1 0 0 0 -0 -0 -0 -1 -1 -1 -2 -2 -2 -2 -2 -2 -3 -3 -3 -3 -3 -3 -3 -3 -3 -3 -3 -3 -3 -3 -3 -3 -3 -3 -4 -4 -4 -4
-3 -5 -5 -4 -4 -3 -1 0 1 0 -0 -1 -1 -1 -1 -2 -2 -2 -2 -2 -2 -3 -3 -3 -3 -3 -3 -3 -3 -3 -3 -3 -3 -3 -4 -4 -4 -4 -4 -4 -4 -4 -4 -4
-4 -4 -4 -3 -2 -3 -1 1 0 -0 -0 -1 -1 -1 -1 -2 -2 -2 -2 -2 -3 -3 -3 -3 -3 -3 -3 -3 -3 -3 -3 -4 -4 -4 -4 -4 -4 -4 -4 -4 -4 -4 -4 -4
Wind_Speed
2 3 2 5 5 4 3 3 4 4 2 1 5 7 7 5 3 3 3 3 3 4 3 2 2 2 1 1 2 2 2 1 1 0 0 1 1 2 2 2 2 3 3 3
3 2 5 3 2 2 2 3 4 4 3 1 4 8 7 4 4 5 5 4 4 2 1 1 1 1 2 2 3 2 2 2 2 1 1 2 2 2 2 2 3 3 4 4
4 4 2 2 1 2 3 4 4 3 4 2 2 6 4 2 1 2 2 2 3 3 3 2 1 2 2 3 4 3 3 3 2 1 0 1 1 1 2 2 2 3 4 4
1 3 1 2 2 2 4 3 3 2 1 3 0 4 5 3 2 2 1 1 1 1 1 1 1 2 3 4 4 4 3 3 2 1 1 1 2 3 3 3 3 4 4 5
1 1 0 2 3 2 3 1 1 1 1 2 2 3 7 2 4 5 3 2 1 1 1 1 1 2 3 3 3 3 3 3 2 2 2 2 3 3 3 3 3 4 4 4
1 1 0 1 1 1 1 3 4 3 2 3 5 5 6 4 6 4 3 2 2 0 0 1 2 2 3 2 2 2 2 2 2 2 3 3 3 4 4 4 4 4 3 3
3 2 2 1 2 2 3 4 3 3 2 6 3 4 7 5 4 4 4 3 2 0 1 1 2 3 3 3 2 2 2 3 3 3 3 4 4 4 5 5 5 4 4 4
1 3 2 1 2 2 2 5 5 4 4 5 2 6 5 2 1 2 3 3 2 0 1 1 2 2 3 3 3 2 2 3 3 3 4 4 4 3 4 5 5 5 5 5
3 3 1 1 1 3 3 2 4 4 0 3 5 5 4 0 1 1 1 1 1 1 2 2 3 3 2 3 3 3 3 4 4 4 4 4 4 4 4 5 5 5 5 4
3 2 2 2 2 2 2 4 4 3 2 4 5 4 4 4 3 2 1 2 2 2 2 3 4 3 3 3 3 3 3 4 4 4 4 4 4 4 5 4 5 5 5 4
2 3 2 2 2 2 2 1 2 3 3 4 4 6 4 6 5 4 3 3 2 2 2 3 4 3 3 3 3 4 4 4 4 4 4 4 4 4 4 4 5 5 5 5
2 3 1 4 2 0 2 4 5 3 4 3 3 6 4 3 3 2 2 3 2 2 2 3 4 3 3 4 4 4 4 4 5 4 4 4 4 4 4 5 5 5 5 4
4 4 1 4 3 2 1 2 3 3 3 3 4 6 2 1 1 2 2 3 3 2 3 3 3 3 3 4 4 4 5 5 5 4 4 4 4 4 4 5 5 4 4 4
4 3 5 7 5 4 3 4 4 5 4 5 8 9 8 6 5 5 4 3 3 3 3 3 4 4 4 4 4 4 5 5 5 4 4 4 4 4 4 5 5 4 4 4
4 3 4 5 4 3 5 7 6 8 8 8 8 9 12 8 6 6 4 3 3 4 4 4 4 5 4 5 5 4 5 5 4 4 4 5 4 4 4 4 4 3 3 3
2 3 1 3 2 3 5 8 9 9 8 9 9 12 9 5 4 4 4 4 4 5 5 5 5 5 5 5 5 5 5 5 4 4 5 5 4 4 4 4 4 3 3 3
3 4 2 3 3 3 7 8 9 7 7 8 11 10 5 4 5 6 6 5 5 5 5 5 5 5 6 6 5 5 5 5 4 4 4 4 4 4 4 4 3 3 3 3
5 4 3 1 3 5 7 2 6 7 8 9 8 7 5 7 6 6 6 6 5 5 5 5 5 5 6 5 5 4 4 4 4 4 5 5 5 5 4 3 3 3 3 3
3 5 3 2 2 8 8 3 4 5 6 7 9 8 6 4 4 5 4 3 4 5 5 5 5 5 5 5 4 4 4 3 4 4 5 5 4 4 3 3 3 3 3 3
3 4 4 3 3 6 6 2 2 3 6 4 5 6 4 1 2 5 3 3 4 4 3 4 4 4 5 5 4 3 4 4 4 4 5 5 4 4 3 4 3 3 3 3
3 2 4 4 5 8 6 2 3 2 6 3 4 5 5 6 6 5 4 4 3 3 4 4 4 4 4 5 3 3 4 4 5 4 4 4 4 3 3 3 3 3 3 2
7 6 6 5 5 8 3 4 5 7 3 2 3 4 5 6 5 4 4 4 4 4 4 4 3 4 5 4 3 3 5 5 4 4 3 4 4 3 2 2 2 2 2 1
7 8 6 9 8 4 4 6 5 3 3 4 3 4 4 4 5 4 4 4 4 4 4 4 4 4 5 4 3 4 5 4 4 3 3 4 4 3 2 2 2 2 1 1
4 3 3 5 8 7 6 6 5 4 5 5 5 4 4 5 5 5 4 4 4 4 4 3 3 4 5 4 3 4 4 4 3 3 3 3 3 3 3 2 2 2 1 1
5 5 4 6 7 6 6 6 7 6 5 5 4 4 4 4 5 5 4 5 4 4 4 3 3 4 5 5 4 4 3 3 2 3 3 3 3 2 2 2 2 2 2 2
5 7 7 8 6 5 7 5 4 4 5 5 4 4 3 4 5 4 4 4 4 4 4 4 4 4 4 4 4 4 3 2 2 2 2 2 2 2 2 2 3 4 3 3
Wind_Direction
63 88 195 215 203 209 195 212 253 259 280 232 242 263 269 262 240 222 218 218 222 228 238 226 214 194 173 163 156 175 178 204 164 215 245 244 257 262 272 274 273 276 274 268
55 248 240 231 215 218 233 256 270 293 323 268 263 272 272 250 219 206 204 210 218 225 262 257 257 218 202 202 199 197 204 207 205 217 234 226 228 242 254 277 294 288 281 272
178 242 232 190 197 222 246 219 233 258 321 331 319 297 272 276 202 195 207 201 201 203 216 230 251 253 236 221 213 215 218 216 221 221 291 325 329 317 308 293 284 282 280 270
233 280 249 178 220 192 242 240 220 236 353 288 157 280 270 246 249 231 221 175 188 206 220 221 225 258 252 239 225 218 221 218 218 196 188 219 243 247 257 257 263 276 278 273
265 318 120 203 238 187 214 291 242 232 173 292 241 219 279 238 241 243 234 225 222 207 182 219 254 250 262 257 226 220 224 227 220 212 209 222 250 254 266 268 273 277 278 277
270 294 42 218 273 190 158 37 35 47 86 266 227 197 267 228 223 230 235 236 228 198 23 348 331 332 315 299 256 229 233 251 244 232 235 235 248 264 271 274 270 275 278 271
343 334 347 35 54 20 69 86 28 351 334 252 224 206 248 246 225 205 208 217 210 138 37 354 352 344 332 313 284 250 240 261 263 252 249 251 248 249 253 257 256 262 271 272
121 281 279 340 177 188 178 148 163 206 238 278 278 233 252 267 240 163 169 181 176 72 336 309 313 322 318 309 300 287 271 271 268 260 258 259 257 251 257 259 255 252 255 261
176 248 322 334 350 143 143 177 171 146 197 273 267 279 297 213 40 72 100 95 244 308 317 320 323 323 314 309 303 292 289 289 283 273 270 267 264 261 263 266 263 262 262 264
156 226 292 319 42 15 142 145 106 136 185 263 282 263 243 238 247 264 250 262 289 322 333 331 324 319 313 315 320 319 300 290 288 283 274 279 273 269 265 266 268 269 269 264
134 160 308 7 186 197 121 121 132 152 178 192 262 269 231 215 210 215 239 248 265 289 304 316 318 321 327 333 330 324 319 309 301 292 284 280 280 279 275 268 268 266 267 262
132 126 241 263 272 219 180 186 155 167 237 207 214 268 284 227 207 199 255 290 305 300 311 319 322 329 336 332 328 329 324 315 302 295 292 286 288 286 280 275 273 268 264 261
137 124 61 344 331 347 245 208 171 150 148 190 205 262 303 12 330 282 274 297 300 291 307 323 325 319 321 321 322 323 320 311 306 302 298 295 294 289 283 279 279 273 263 261
121 143 181 205 222 192 225 228 185 157 190 226 229 256 283 287 290 293 283 278 278 278 292 307 313 308 310 312 310 312 314 310 309 306 297 293 294 293 290 291 288 273 259 250
115 181 226 246 239 200 225 231 205 202 208 217 244 251 267 268 267 272 272 281 287 293 299 294 302 306 306 309 309 309 312 313 310 308 300 292 294 295 300 305 303 286 269 261
104 161 191 281 248 231 257 247 223 223 225 236 258 271 268 273 275 280 279 274 273 283 286 289 296 302 304 302 303 307 309 310 309 302 297 296 298 301 305 307 304 296 285 273
144 140 146 264 314 339 274 235 205 210 212 201 231 247 277 291 277 266 264 255 256 271 282 286 291 293 295 298 295 293 297 302 303 298 296 299 297 296 296 297 293 284 278 267
148 140 152 249 24 248 247 225 187 209 238 221 237 255 259 259 274 269 249 233 254 273 278 282 289 295 298 302 303 295 299 302 301 299 298 301 301 299 299 297 287 280 273 264
154 147 146 159 242 278 289 247 186 200 265 223 229 258 272 294 317 282 235 228 257 270 272 272 277 286 296 300 300 308 308 305 301 297 299 302 300 299 299 296 288 281 278 276
78 113 139 157 202 247 258 260 181 128 277 244 215 241 251 151 288 269 263 287 286 288 286 282 288 299 300 301 303 309 306 310 302 301 302 305 302 297 292 287 283 283 279 273
139 144 176 188 226 261 258 242 123 174 260 276 229 231 215 216 237 256 272 284 281 287 290 289 291 296 296 302 306 305 304 300 302 307 310 315 315 306 303 303 301 302 296 284
172 174 192 174 209 253 222 143 188 229 278 264 257 246 238 252 265 265 266 277 287 293 294 294 294 297 301 304 302 301 299 301 312 316 320 322 324 323 331 321 315 312 302 300
196 194 191 198 218 246 193 206 233 239 254 261 258 264 252 257 264 268 267 273 281 282 284 289 288 298 304 304 292 288 298 313 321 325 324 321 329 336 343 332 320 316 320 332
246 195 192 248 261 260 252 254 263 245 251 265 254 253 243 250 259 268 274 277 284 287 286 288 294 300 303 301 299 288 299 314 317 317 320 323 334 340 345 333 320 315 315 323
217 177 208 251 274 297 277 253 259 263 262 266 268 255 242 241 257 259 268 276 279 289 295 292 288 290 294 301 305 308 311 313 313 317 323 333 335 330 339 344 333 318 307 306
194 185 194 231 227 219 258 261 252 247 256 255 259 273 263 237 251 263 267 272 274 281 291 297 296 293 294 304 311 314 315 310 311 321 331 333 334 333 340 349 355 359 349 348
Height
1491 1495 1497 1496 1495 1495 1496 1497 1498 1495 1492 1493 1493 1491 1488 1487 1487 1488 1488 1488 1488 1488 1489 1490 1490 1490 1491 1491 1491 1492 1492 1492 1492 1491 1491 1491 1490 1490 1490 1490 1489 1489 1488 1488
1496 1497 1494 1493 1494 1494 1496 1498 1498 1496 1493 1493 1493 1491 1487 1485 1485 1485 1485 1485 1485 1486 1486 1487 1487 1488 1488 1488 1488 1489 1489 1488 1488 1488 1488 1488 1487 1487 1487 1487 1486 1486 1485 1485
1495 1494 1492 1493 1494 1495 1496 1498 1498 1498 1495 1493 1494 1492 1487 1484 1483 1484 1484 1483 1483 1484 1483 1484 1484 1485 1485 1485 1485 1486 1486 1486 1485 1485 1485 1485 1484 1484 1484 1483 1483 1483 1482 1482
1495 1493 1492 1493 1495 1495 1497 1495 1495 1496 1500 1502 1498 1501 1488 1485 1484 1482 1482 1481 1481 1481 1481 1481 1482 1482 1482 1482 1483 1483 1483 1483 1483 1482 1482 1481 1480 1480 1480 1479 1479 1479 1479 1478
1495 1493 1493 1494 1494 1494 1495 1494 1495 1496 1501 1504 1501 1503 1491 1485 1483 1481 1481 1480 1480 1480 1479 1479 1479 1479 1479 1480 1480 1480 1480 1480 1479 1479 1478 1478 1477 1477 1477 1476 1476 1475 1475 1475
1494 1493 1493 1493 1493 1493 1494 1496 1498 1502 1505 1507 1499 1501 1491 1485 1480 1479 1479 1478 1478 1478 1478 1478 1478 1478 1477 1477 1477 1477 1476 1476 1476 1476 1475 1475 1474 1473 1473 1472 1472 1472 1471 1471
1496 1494 1493 1492 1493 1495 1497 1503 1511 1510 1514 1506 1496 1496 1488 1479 1477 1477 1477 1477 1477 1477 1476 1476 1476 1475 1474 1474 1474 1473 1473 1473 1473 1472 1472 1471 1471 1470 1469 1469 1468 1467 1467 1466
1499 1499 1494 1493 1494 1495 1497 1501 1509 1510 1510 1504 1497 1493 1483 1476 1475 1475 1475 1476 1476 1476 1476 1475 1474 1473 1472 1472 1471 1470 1470 1469 1469 1468 1468 1468 1467 1466 1466 1465 1464 1463 1463 1462
1500 1498 1494 1493 1493 1494 1496 1501 1500 1508 1512 1510 1498 1490 1480 1476 1475 1475 1475 1475 1475 1475 1474 1473 1472 1471 1470 1469 1468 1467 1467 1466 1465 1465 1464 1463 1463 1462 1461 1461 1460 1459 1459 1458
1496 1500 1496 1495 1494 1495 1496 1498 1505 1508 1508 1505 1497 1490 1484 1478 1477 1476 1475 1474 1474 1474 1473 1472 1470 1469 1468 1467 1466 1465 1464 1462 1461 1461 1460 1459 1458 1457 1457 1456 1455 1454 1454 1454
1496 1501 1500 1497 1498 1498 1498 1501 1503 1507 1507 1506 1501 1490 1476 1474 1474 1475 1474 1473 1473 1472 1471 1470 1469 1468 1467 1465 1464 1462 1461 1459 1458 1457 1456 1455 1454 1453 1452 1451 1450 1450 1449 1449
1496 1502 1504 1501 1499 1498 1498 1499 1503 1506 1507 1508 1506 1492 1472 1472 1471 1472 1473 1472 1472 1471 1470 1469 1467 1466 1464 1462 1461 1459 1457 1456 1454 1453 1451 1450 1449 1448 1447 1446 1446 1445 1444 1444
1495 1502 1505 1502 1504 1502 1501 1499 1501 1504 1506 1509 1504 1489 1473 1471 1471 1471 1472 1471 1470 1469 1468 1467 1465 1464 1462 1460 1458 1456 1454 1452 1450 1449 1447 1446 1445 1444 1442 1441 1441 1440 1440 1439
1492 1500 1502 1499 1496 1498 1500 1500 1500 1502 1506 1505 1497 1484 1474 1472 1472 1471 1470 1469 1468 1467 1466 1465 1463 1461 1459 1457 1455 1452 1450 1448 1446 1445 1443 1442 1440 1439 1438 1437 1436 1435 1435 1435
1492 1498 1498 1496 1494 1496 1495 1495 1497 1499 1496 1496 1487 1483 1473 1471 1471 1469 1468 1467 1466 1465 1464 1462 1460 1458 1456 1454 1451 1449 1447 1445 1443 1441 1439 1438 1436 1435 1434 1433 1432 1431 1431 1431
1493 1497 1498 1496 1492 1494 1493 1489 1491 1492 1491 1490 1485 1480 1469 1469 1468 1467 1466 1465 1464 1462 1461 1460 1458 1455 1453 1451 1448 1446 1443 1441 1440 1438 1436 1434 1433 1432 1431 1429 1428 1427 1427 1427
1495 1498 1498 1497 1495 1492 1489 1481 1483 1484 1482 1482 1479 1472 1468 1468 1466 1464 1463 1462 1461 1460 1459 1457 1455 1453 1451 1448 1445 1443 1440 1438 1436 1434 1433 1431 1430 1429 1427 1426 1425 1424 1424 1424
1494 1497 1501 1500 1499 1495 1477 1473 1474 1476 1474 1473 1469 1466 1465 1464 1463 1462 1460 1459 1458 1457 1455 1454 1452 1450 1448 1445 1443 1440 1438 1435 1433 1431 1430 1428 1427 1425 1424 1423 1422 1421 1421 1420
1490 1495 1501 1503 1502 1491 1476 1471 1472 1474 1470 1465 1465 1464 1462 1462 1460 1458 1457 1456 1455 1454 1453 1451 1449 1447 1445 1442 1440 1437 1435 1432 1430 1429 1427 1425 1424 1422 1421 1420 1419 1418 1418 1417
1492 1493 1500 1502 1498 1489 1472 1468 1467 1470 1469 1460 1460 1460 1460 1460 1462 1456 1453 1453 1452 1451 1450 1448 1446 1444 1442 1439 1437 1434 1432 1429 1427 1426 1424 1422 1421 1419 1418 1417 1416 1416 1415 1414
1494 1496 1498 1499 1498 1483 1469 1466 1467 1473 1465 1458 1457 1456 1457 1457 1455 1453 1451 1450 1449 1448 1446 1445 1443 1441 1439 1436 1434 1431 1429 1427 1425 1423 1421 1419 1418 1416 1415 1414 1414 1413 1412 1411
1488 1493 1496 1496 1495 1481 1464 1465 1467 1462 1457 1455 1454 1454 1453 1452 1451 1449 1448 1447 1446 1444 1443 1441 1439 1437 1435 1433 1431 1429 1426 1425 1423 1420 1419 1417 1415 1414 1413 1412 1411 1410 1410 1409
1481 1479 1479 1479 1472 1462 1460 1459 1458 1457 1455 1454 1453 1451 1451 1449 1447 1446 1445 1444 1442 1441 1439 1438 1436 1434 1432 1430 1428 1426 1424 1422 1420 1418 1416 1415 1414 1412 1411 1410 1409 1409 1408 1407
1474 1472 1474 1472 1462 1458 1457 1455 1454 1454 1453 1451 1450 1449 1448 1446 1444 1443 1442 1441 1439 1437 1436 1434 1433 1431 1429 1427 1425 1424 1422 1420 1418 1416 1415 1413 1412 1411 1410 1409 1408 1407 1406 1405
1466 1469 1469 1467 1459 1455 1452 1451 1450 1450 1449 1447 1446 1445 1444 1443 1441 1440 1438 1437 1436 1434 1433 1431 1430 1428 1426 1424 1423 1421 1419 1418 1416 1414 1413 1412 1411 1409 1408 1407 1407 1405 1405 1404
1460 1461 1463 1458 1453 1453 1449 1448 1447 1446 1445 1444 1443 1441 1441 1440 1438 1437 1436 1434 1433 1431 1430 1428 1427 1425 1424 1422 1420 1419 1417 1416 1414 1412 1411 1410 1409 1408 1407 1406 1405 1404 1404 1403